Flag for Vietnam Weather past 2 weeks in Ho Chi Minh, Vietnam

Now
77 °F

Passing clouds.


Feels Like: 79 °F
Forecast: 73 / 88 °F
Wind: 5 mph from Northeast

Location: Ho Chi Minh

Current Time: Dec 29, 2014 at 1:48:45 AM

Latest Report: Dec 29, 2014 at 1:00 AM


Visibility: N/A

Pressure: 29.86 "Hg

Humidity: 65%

Dew point: 64 °F

Location of Ho Chi MinhLocation

Historic Weather in Ho Chi Minh — Graph

°F

Ho Chi Minh temperature yesterday

Maximum temperature yesterday: 91 °F (at 12:30 PM)
Minimum temperature yesterday: 75 °F (at 4:00 AM)
Average temperature yesterday: 84 °F

Past Weeks' High & Low Weather Summary

 TemperatureHumidityPressure
High93 °F (Dec 14, 2:30 PM)94% (Dec 19, 9:30 PM)29.98 "Hg (Dec 19, 9:30 PM)
Low72 °F (Dec 18, 5:30 AM)41% (Dec 14, 2:30 PM)29.74 "Hg (Dec 21, 2:30 PM)
Average81 °F66%29.85 "Hg
* Reported Midnight between Dec 13 and Dec 14 — Dec 29 12:30 AM, Ho Chi Minh, Weather by CustomWeather, © 2014

Note: Actual official high and low records may vary slightly from our data, if they occured in-between our weather recording intervals... More about our weather records

Advertising

Ho Chi Minh weather history for previous 24 hours

 ConditionsComfort  
Time TempWeatherWind HumidityBarometerVisibility
12:30 AM
Dec 29
77 °FPassing clouds.8 mph65%29.86 "HgN/A
12:00 AM77 °FPassing clouds.6 mph65%29.89 "HgN/A
11:30 PM
Dec 28
77 °FPassing clouds.5 mph65%29.89 "HgN/A
11:00 PM79 °FPassing clouds.7 mph61%29.89 "HgN/A
10:30 PM81 °FPassing clouds.6 mph58%29.89 "HgN/A
10:00 PM81 °FPassing clouds.8 mph58%29.89 "HgN/A
9:30 PM81 °FPassing clouds.8 mph58%29.89 "HgN/A
9:00 PM82 °FPassing clouds.7 mph55%29.89 "HgN/A
8:30 PM84 °FPassing clouds.8 mph51%29.89 "HgN/A
8:00 PM84 °FPassing clouds.6 mph55%29.89 "HgN/A
7:30 PM84 °FPassing clouds.1 mph62%29.89 "HgN/A
7:00 PM84 °FPassing clouds.6 mph66%29.86 "HgN/A
6:30 PM84 °FPassing clouds.3 mph66%29.86 "HgN/A
6:00 PM84 °FPassing clouds.6 mph66%29.83 "HgN/A
5:30 PM86 °FPartly sunny.6 mph62%29.83 "HgN/A
5:00 PM90 °FScattered clouds.6 mph46%29.83 "HgN/A
4:30 PM90 °FScattered clouds.9 mph46%29.80 "HgN/A
4:00 PM91 °FScattered clouds.7 mph44%29.80 "HgN/A
3:30 PM91 °FScattered clouds.8 mph44%29.80 "HgN/A
3:00 PM91 °FScattered clouds.9 mph41%29.80 "HgN/A
2:30 PM90 °FScattered clouds.10 mph43%29.80 "HgN/A
2:00 PM91 °FScattered clouds.12 mph44%29.80 "HgN/A
1:30 PM91 °FScattered clouds.9 mph44%29.80 "HgN/A
1:00 PM91 °FScattered clouds.8 mph44%29.83 "HgN/A
12:30 PM91 °FPassing clouds.6 mph46%29.83 "HgN/A
12:00 PM90 °FPassing clouds.8 mph49%29.86 "HgN/A
11:30 AM88 °FPassing clouds.8 mph52%29.86 "HgN/A
11:00 AM88 °FPassing clouds.7 mph52%29.89 "HgN/A
10:30 AM86 °FPassing clouds.8 mph55%29.89 "HgN/A
10:00 AM86 °FPassing clouds.8 mph55%29.89 "HgN/A
9:30 AM84 °FSunny.8 mph58%29.92 "Hg10 mi
9:00 AM82 °FSunny.13 mph62%29.92 "Hg10 mi
8:30 AM82 °FSunny.10 mph62%29.92 "Hg10 mi
8:00 AM81 °FSunny.6 mph66%29.89 "Hg10 mi
7:30 AM79 °FPassing clouds.5 mph70%29.89 "HgN/A
7:00 AM77 °FPassing clouds.5 mph74%29.89 "HgN/A
6:30 AM75 °FSunny.5 mph78%29.86 "Hg10 mi
6:00 AM75 °FPassing clouds.6 mph78%29.86 "HgN/A
5:00 AM75 °FPassing clouds.2 mph78%29.83 "HgN/A
4:00 AM75 °FPassing clouds.3 mph78%29.83 "HgN/A
Weather by CustomWeather, © 2014

See weather overviewHow to use our weather pages